[[{"header":{"parameterUnit":"m.s-1","parameterCategory":1,"la1":30.2991,"la2":30.254,"lo1":-89.0895,"lo2":-89.0444,"dy":0.0017,"dx":0.0017,"nx":28,"ny":28,"refTime":"2023-09-01T03:00:00:Z","depth":0,"parameterNumber":2,"parameterNumberName":"U-component_of_WINDS"},"data":[0,0,0,0,0,0,0,0,0,0,0,0,0,0,0,0,0,0,0,0,0,0,0,0,0,0,0,0,0,0,0,0,0,0,0,0,0,0,0,0,0,0,0,0,0,0,0,0,0,0,0,0,0,0,0,0,0,0,-1.8432,-1.8432,0,-1.8432,-1.8432,-1.8432,-1.8411,-1.841,-1.841,-1.8409,-1.8409,-1.841,-1.841,0,0,0,0,0,0,0,0,0,0,0,0,0,-1.8414,-1.8414,-1.8432,-1.8432,-1.8432,-1.8432,-1.8432,-1.8432,-1.8411,-1.841,-1.841,-1.8409,-1.8409,-1.841,-1.841,0,0,0,0,0,0,0,0,0,0,0,0,0,-1.8418,-1.8414,-1.8432,-1.8421,-1.842,-1.8432,-1.8432,-1.8432,-1.8411,-1.841,-1.841,-1.8409,-1.8409,-1.841,-1.841,-1.8431,0,0,-1.8413,-1.8413,0,0,0,0,0,0,0,0,-1.8418,-1.8419,-1.8423,-1.8422,-1.8421,-1.842,-1.8425,-1.8432,-1.8411,-1.8415,-1.8409,-1.8408,-1.8414,-1.8414,-1.8416,-1.8431,-1.8431,-1.8413,-1.8413,-1.8414,-1.8414,0,0,0,0,0,0,0,-1.8418,-1.8419,-1.8432,-1.8423,-1.8422,-1.8417,-1.8417,-1.8426,-1.8419,-1.8414,-1.8413,-1.8413,-1.8413,-1.8415,-1.8416,-1.8431,-1.8413,-1.8413,-1.8414,-1.8414,-1.8463,-1.8464,0,0,0,0,0,0,-1.8419,-1.8419,-1.8432,-1.8432,-1.8418,-1.8418,-1.8417,-1.8421,-1.8419,-1.8417,-1.8414,-1.8412,-1.8414,-1.8415,-1.8416,-1.8439,-1.8414,-1.8414,-1.8415,-1.8463,-1.8464,-1.8465,0,0,0,0,0,0,-1.8419,-1.842,-1.8432,-1.8425,-1.8426,-1.8419,-1.8424,-1.8422,-1.8424,-1.8418,-1.8417,-1.8417,-1.8414,-1.8414,-1.8427,-1.8439,-1.8415,-1.8415,-1.8462,-1.8463,-1.8464,-1.8486,0,0,0,0,0,0,-1.8418,-1.842,-1.8428,-1.8425,-1.8426,-1.8443,-1.8424,-1.8422,-1.8425,-1.8423,-1.8421,-1.842,-1.8413,-1.8426,-1.8428,-1.8439,-1.8416,-1.846,-1.8462,-1.8464,-1.8485,-1.8488,-1.8492,0,0,0,0,0,-1.8418,-1.8435,-1.8429,-1.843,-1.8436,-1.8444,-1.8445,-1.8436,-1.8426,-1.8434,-1.843,-1.842,-1.8438,-1.8428,-1.843,-1.8441,-1.846,-1.8462,-1.8464,-1.8483,-1.8488,-1.8491,0,0,0,0,0,0,-1.8439,-1.8434,-1.8427,-1.8444,-1.8445,-1.8441,-1.845,-1.8442,-1.8445,-1.8443,-1.8433,-1.8432,-1.8447,-1.8446,-1.8435,-1.8461,-1.8447,-1.8449,-1.8461,-1.8465,-1.8469,-1.8468,-1.8417,0,0,0,0,0,-1.8446,-1.8453,-1.8448,-1.8463,-1.8464,-1.8457,-1.846,-1.8454,-1.8454,-1.8454,-1.8452,-1.8452,-1.8458,-1.8462,-1.8467,-1.8485,-1.8484,-1.8494,-1.8497,-1.85,-1.8502,-1.851,-1.8515,-1.8471,-1.8471,-1.8471,0,0,-1.846,-1.8458,-1.8463,-1.8467,-1.8467,-1.8474,-1.8457,-1.8466,-1.8471,-1.8456,-1.8467,-1.8466,-1.8466,-1.8481,-1.8488,-1.8481,-1.8514,-1.8503,-1.8505,-1.8505,-1.8513,-1.8517,-1.8521,-1.8472,-1.8472,-1.8472,0,0,-1.8488,-1.8488,-1.85,-1.85,-1.85,-1.8495,-1.8498,-1.8496,-1.8494,-1.8505,-1.8494,-1.85,-1.851,-1.851,-1.8512,-1.8541,-1.8531,-1.8543,-1.856,-1.8569,-1.8572,-1.8575,-1.8584,-1.8588,-1.8545,-1.8545,-1.8545,0,-1.8505,-1.8515,-1.8507,-1.8516,-1.8518,-1.8505,-1.8517,-1.8517,-1.8519,-1.8521,-1.8513,-1.8525,-1.8524,-1.8539,-1.8546,-1.8548,-1.8551,-1.8542,-1.8573,-1.8575,-1.8578,-1.8587,-1.859,-1.8546,-1.8546,-1.8546,-1.8546,0,-1.8536,-1.8543,-1.8553,-1.8554,-1.8558,-1.8569,-1.8562,-1.8566,-1.856,-1.8556,-1.8568,-1.8567,-1.8571,-1.8574,-1.8568,-1.8588,-1.8583,-1.8574,-1.8559,-1.8584,-1.8592,-1.8595,-1.8548,-1.8548,-1.8547,-1.8547,0,0,-1.8576,-1.8573,-1.8577,-1.8577,-1.8576,-1.8582,-1.8592,-1.8596,-1.86,-1.8602,-1.8609,-1.8618,-1.861,-1.8611,-1.8606,-1.8613,-1.8635,-1.8603,-1.8603,-1.8608,-1.8656,-1.8662,-1.8666,-1.8629,-1.863,-1.863,-1.8655,0,-1.8603,-1.8619,-1.8612,-1.8629,-1.8635,-1.8623,-1.8632,-1.8632,-1.8629,-1.8634,-1.8631,-1.8637,-1.8626,-1.8627,-1.8634,-1.8631,-1.8644,-1.8629,-1.8635,-1.8636,-1.8634,-1.867,-1.8676,-1.87,-1.8659,-1.8659,-1.866,0,-1.8635,-1.8638,-1.8656,-1.8654,-1.8656,-1.8664,-1.8667,-1.8672,-1.8672,-1.8669,-1.8672,-1.8664,-1.8673,-1.866,-1.8673,-1.8662,-1.8665,-1.8664,-1.8664,-1.8663,-1.8648,-1.8669,-1.8707,-1.871,-1.8665,-1.8664,-1.8664,0,-1.8662,-1.867,-1.8681,-1.8682,-1.868,-1.8686,-1.8685,-1.8685,-1.8688,-1.869,-1.8692,-1.8696,-1.8698,-1.8701,-1.8695,-1.8686,-1.8708,-1.8694,-1.8705,-1.8705,-1.8709,-1.8709,-1.8747,-1.8713,-1.8713,-1.8713,-1.8713,0,-1.8691,-1.8702,-1.8693,-1.87,-1.8712,-1.8704,-1.8716,-1.8714,-1.8714,-1.872,-1.871,-1.8716,-1.8708,-1.8713,-1.8709,-1.8719,-1.8721,-1.8718,-1.8716,-1.8718,-1.8718,-1.8718,-1.8716,-1.8714,-1.8714,-1.8714,-1.8714,0,-1.8721,-1.8716,-1.8728,-1.8725,-1.8724,-1.8733,-1.8731,-1.8737,-1.8734,-1.8742,-1.8743,-1.8738,-1.8743,-1.8738,-1.8743,-1.874,-1.8754,-1.875,-1.8753,-1.8752,-1.8763,-1.8761,-1.8801,-1.8806,-1.8771,-1.8771,-1.8771,0,-1.874,-1.8748,-1.8746,-1.8749,-1.8749,-1.8755,-1.8758,-1.875,-1.8754,-1.8755,-1.8761,-1.8765,-1.8769,-1.8778,-1.8775,-1.8779,-1.8775,-1.8789,-1.8775,-1.8776,-1.8773,-1.8772,-1.8773,-1.8791,-1.8791,-1.8792,-1.8792,0,-1.8772,-1.8769,-1.8774,-1.8777,-1.878,-1.8783,-1.8784,-1.8788,-1.878,-1.8784,-1.879,-1.8792,-1.8798,-1.8803,-1.8806,-1.8805,-1.8797,-1.8796,-1.8799,-1.88,-1.8801,-1.8799,-1.8759,-1.8795,-1.8795,-1.8795,-1.8794,-1.8794,-1.8796,-1.8803,-1.8802,-1.8807,-1.8808,-1.8809,-1.8815,-1.8812,-1.8817,-1.882,-1.8816,-1.8823,-1.8823,-1.8826,-1.8826,-1.8831,-1.8825,-1.8829,-1.883,-1.8831,-1.8832,-1.8801,-1.8832,-1.8832,-1.8832,-1.8832,-1.8832,0,-1.8827,-1.8826,-1.8831,-1.8833,-1.8837,-1.883,-1.8831,-1.8835,-1.8841,-1.8842,-1.8845,-1.8851,-1.8856,-1.8853,-1.8857,-1.8862,-1.8858,-1.8863,-1.8862,-1.8861,-1.8837,-1.8834,-1.8865,-1.8865,-1.8865,-1.8865,-1.8865,-1.8865,-1.8844,-1.8854,-1.8851,-1.8861,-1.886,-1.8866,-1.8867,-1.8869,-1.8869,-1.8877,-1.888,-1.8879,-1.8878,-1.8882,-1.8885,-1.8884,-1.8886,-1.8891,-1.8889,-1.8867,-1.8863,-1.886,-1.8857,-1.8892,-1.8892,-1.8912,-1.8913,-1.8913]},{"header":{"parameterUnit":"m.s-1","parameterCategory":1,"la1":30.2991,"la2":30.254,"lo1":-89.0895,"lo2":-89.0444,"dy":0.0017,"dx":0.0017,"nx":28,"ny":28,"refTime":"2023-09-01T03:00:00:Z","depth":0,"parameterNumber":3,"parameterNumberName":"V-component_of_WINDS"},"data":[0,0,0,0,0,0,0,0,0,0,0,0,0,0,0,0,0,0,0,0,0,0,0,0,0,0,0,0,0,0,0,0,0,0,0,0,0,0,0,0,0,0,0,0,0,0,0,0,0,0,0,0,0,0,0,0,0,0,2.0439,2.044,0,2.0538,2.054,2.0541,2.0606,2.0606,2.0607,2.0607,2.0703,2.0705,2.0708,0,0,0,0,0,0,0,0,0,0,0,0,0,2.0301,2.0303,2.0439,2.044,2.0442,2.0538,2.054,2.0541,2.0606,2.0606,2.0607,2.0607,2.0703,2.0705,2.0708,0,0,0,0,0,0,0,0,0,0,0,0,0,2.0376,2.0304,2.0439,2.0486,2.0491,2.0538,2.054,2.0541,2.0606,2.0606,2.0607,2.0608,2.0702,2.0705,2.0708,2.0715,0,0,2.0718,2.0719,0,0,0,0,0,0,0,0,2.0372,2.0381,2.0478,2.0483,2.0489,2.0561,2.0526,2.0599,2.0605,2.0562,2.0607,2.0608,2.0655,2.0662,2.0679,2.0719,2.0723,2.0718,2.072,2.0722,2.0723,0,0,0,0,0,0,0,2.0367,2.0377,2.0478,2.0479,2.0486,2.05,2.0512,2.054,2.0603,2.0566,2.0571,2.0582,2.0658,2.0676,2.0682,2.0725,2.0718,2.0721,2.0723,2.0724,2.0775,2.0774,0,0,0,0,0,0,2.0355,2.0373,2.0475,2.0481,2.0431,2.0502,2.0515,2.0537,2.0603,2.0614,2.0581,2.0584,2.067,2.0678,2.0685,2.0697,2.0722,2.0725,2.0726,2.0775,2.0774,2.0774,0,0,0,0,0,0,2.0351,2.0363,2.0471,2.0428,2.0443,2.0504,2.0528,2.0538,2.0556,2.0615,2.0626,2.0588,2.0671,2.0681,2.0707,2.0701,2.0726,2.0729,2.0776,2.0775,2.0774,2.0721,0,0,0,0,0,0,2.0347,2.0362,2.0366,2.0428,2.0445,2.0493,2.0527,2.054,2.0562,2.0568,2.0624,2.0634,2.0672,2.0702,2.071,2.0706,2.0732,2.0777,2.0775,2.0774,2.0723,2.0718,2.0714,0,0,0,0,0,2.0342,2.0346,2.0366,2.0378,2.0452,2.0492,2.0502,2.0547,2.0562,2.0566,2.0603,2.0633,2.0701,2.0704,2.0714,2.0711,2.0777,2.0776,2.0775,2.0725,2.0719,2.0714,0,0,0,0,0,0,2.028,2.0355,2.0378,2.0403,2.0441,2.0503,2.051,2.0539,2.0572,2.0576,2.0628,2.064,2.0661,2.0689,2.0691,2.072,2.0742,2.0743,2.0702,2.0696,2.0691,2.0684,2.0734,0,0,0,0,0,2.027,2.0298,2.0361,2.0376,2.0395,2.0449,2.0468,2.0499,2.054,2.0556,2.0596,2.0633,2.0663,2.0681,2.0712,2.0728,2.074,2.073,2.0725,2.0721,2.0721,2.073,2.0726,2.0769,2.0769,2.0769,0,0,2.0248,2.0292,2.0306,2.0365,2.0399,2.0424,2.0462,2.0488,2.0507,2.0559,2.0587,2.0617,2.0662,2.0683,2.0694,2.0707,2.0712,2.072,2.0716,2.0718,2.0729,2.0724,2.0721,2.0768,2.0769,2.0769,0,0,2.0221,2.0258,2.0275,2.0308,2.0358,2.0394,2.0398,2.0456,2.0479,2.0508,2.0548,2.057,2.0621,2.0651,2.0673,2.0657,2.0685,2.0665,2.064,2.0649,2.0645,2.0643,2.0636,2.0633,2.0665,2.0665,2.0665,0,2.0187,2.023,2.028,2.0304,2.0328,2.0378,2.0394,2.0423,2.048,2.0494,2.0508,2.0572,2.0606,2.0634,2.0631,2.0647,2.0652,2.0659,2.0642,2.064,2.0638,2.0632,2.063,2.0662,2.0662,2.0663,2.0663,0,2.0185,2.0214,2.0221,2.0277,2.0301,2.0321,2.0372,2.0391,2.042,2.0454,2.0482,2.0524,2.0564,2.0573,2.0601,2.0605,2.0611,2.0633,2.0656,2.063,2.0626,2.0624,2.0658,2.0659,2.066,2.0661,0,0,2.0122,2.0205,2.0207,2.0233,2.0292,2.0314,2.0335,2.0376,2.0391,2.0428,2.0446,2.0488,2.0508,2.0533,2.0564,2.0572,2.0556,2.0593,2.0595,2.0584,2.0562,2.0544,2.0541,2.0575,2.0575,2.0575,2.0558,0,2.0104,2.0147,2.0192,2.0219,2.0245,2.0293,2.0311,2.0348,2.038,2.0406,2.0441,2.0469,2.0494,2.0509,2.0519,2.0556,2.0552,2.0558,2.0591,2.0591,2.0577,2.0539,2.0521,2.0503,2.0556,2.0556,2.0556,0,2.0089,2.0125,2.0155,2.0211,2.0224,2.024,2.028,2.0305,2.0347,2.037,2.0397,2.0431,2.0454,2.0475,2.0507,2.0509,2.0525,2.0545,2.0546,2.055,2.0571,2.0541,2.0499,2.0496,2.0554,2.0554,2.0554,0,2.0039,2.0095,2.012,2.0141,2.0207,2.0217,2.0245,2.0289,2.031,2.0345,2.0359,2.0395,2.0414,2.0441,2.0483,2.0494,2.0509,2.0534,2.0527,2.0526,2.0528,2.0527,2.0486,2.0539,2.0539,2.0539,2.0539,0,2.0014,2.0029,2.0099,2.0114,2.0133,2.0184,2.02,2.0232,2.027,2.0291,2.0334,2.0352,2.0407,2.0431,2.0464,2.0484,2.0493,2.051,2.0519,2.0506,2.0504,2.0517,2.0519,2.0539,2.0539,2.0539,2.0539,0,1.9961,2.0008,2.0039,2.0099,2.0115,2.0126,2.0177,2.0193,2.0227,2.0253,2.0262,2.0315,2.0346,2.0391,2.0434,2.0456,2.0471,2.0486,2.0458,2.0462,2.0453,2.0453,2.0419,2.0417,2.0471,2.0471,2.047,0,1.9941,1.9955,2.0017,2.0035,2.0062,2.009,2.0113,2.0163,2.0184,2.0233,2.0242,2.0276,2.0307,2.0353,2.0394,2.0428,2.0442,2.0428,2.0448,2.0434,2.0441,2.044,2.0441,2.0423,2.0422,2.0422,2.0421,0,1.9901,1.9924,1.9956,1.9995,2.0021,2.0054,2.0089,2.01,2.0157,2.0178,2.0211,2.0235,2.028,2.0313,2.0352,2.0379,2.0408,2.0415,2.0415,2.0402,2.0385,2.0393,2.0444,2.0415,2.0416,2.0416,2.0417,2.0417,1.9864,1.9878,1.9924,1.9958,1.999,2.0021,2.0039,2.0076,2.0105,2.0146,2.0174,2.0205,2.0246,2.0302,2.0327,2.035,2.0363,2.0363,2.0363,2.0362,2.0358,2.0382,2.0358,2.0358,2.0358,2.0358,2.0358,0,1.9826,1.9858,1.9888,1.9936,1.9962,1.999,2.003,2.0049,2.0076,2.0113,2.0142,2.0179,2.0211,2.0255,2.029,2.03,2.0315,2.0307,2.0307,2.0312,2.0345,2.0341,2.0295,2.0295,2.0295,2.0295,2.0295,2.0295,1.9809,1.9834,1.9862,1.9902,1.9934,1.9966,1.9986,2.0015,2.0044,2.0084,2.0112,2.0141,2.018,2.0218,2.0248,2.026,2.027,2.0259,2.0275,2.0304,2.031,2.0315,2.0312,2.0261,2.0261,2.024,2.024,2.024]}]]